Artesian, SD (57314)

12:18 AM CDT on August 25, 2019 (GMT -0500)
NE of Letcher | | Change Station
Active Advisory: Flood Warning

Elev 1302 ft 43.91 °N, 98.11 °W | Updated 3 minutes ago

Overcast
Overcast
64.9 °F
Feels Like 64.9 °F
N
4
Wind Variable Wind from ESE
Gusts 0.0 mph

Today
High -- | Low -- °F
--% Chance of Precip.
Yesterday
High -- | Low -- °F
Precip. -- in
Pressure 29.97 in
Visibility 9.0 miles
Clouds Mostly Cloudy 1400 ft
Mostly Cloudy 1900 ft
Overcast 2300 ft
Dew Point 62 °F
Humidity 89%
Rainfall 0.00 in
Snow Depth Not available.
6:46 AM 8:20 PM
Waning Crescent, 33% visible
SPECI KMHE 250501Z AUTO 14014G21KT 9SM BKN014 BKN019 OVC023 18/16 A2997 RMK AO2 T01830161
Pressure 29.97 in
Visibility 9.0 miles
Clouds Mostly Cloudy 1400 ft
Mostly Cloudy 1900 ft
Overcast 2300 ft
Dew Point 62 °F
Humidity 89%
Rainfall 0.00 in
Snow Depth Not available.
6:46 AM 8:20 PM
Waning Crescent, 33% visible
SPECI KMHE 250501Z AUTO 14014G21KT 9SM BKN014 BKN019 OVC023 18/16 A2997 RMK AO2 T01830161

Get Your Daily Forecast Email!

Thanks for signing up!

Be on the lookout for a verification email in your inbox.

You'll start receiving severe weather alerts in your inbox..

×

10-Day Weather Forecast

Almanac

Astronomy

Aug. 25, 2019 Rise Set
Actual Time
Civil Twilight
Nautical Twilight
Astronomical Twilight
Moon
Length of Visible Light
Length of Day
Tomorrow will be .
, % of the Moon is Illuminated

Today's Extremes

State Highs State Lows

Community

WunderPhotos

Category 6

Welcome to Category 6. This is the collective home for Weather Underground's featured writeups by Dr. Jeff Masters (right), Bob Henson (left), Chris Burt, and other regular contributors.

Nearby

Air Quality

  Air Quality AQ Index Pollutant
Not available.

Snow Depth

Station Depth Elevation

Earthquake Activity

City Distance Mag. Time & Date
Minimum magnitude displayed is 2.5.

Coastal Water Temperatures

Place Temperature

Stations

Nearby Weather Stations

Station Location Temp. Windchill Dew Point Humidity Wind Precip. Elev Updated Type
                   

Watches & Warnings

Flood Warning
Issued: 10:27 AM CDT Aug. 24, 2019 – National Weather Service

The Flood Warning continues for
the James River near Forestburg.
* Until further notice.
* At 09am Saturday the stage was 14.76 feet.
* Moderate flooding is occurring and moderate flooding is forecast.
* Flood stage is 12.00 feet.
* Forecast... the river will continue to fall to a stage of 14.6 feet
by 7 am Sunday.
* At stages near 15.0 feet... many of the County roads in the area are
impassable, and some roads are under water for as much as 1/2 mile.


Lat... Lon 4420 9822 4420 9810 4402 9802 4393 9798
          4393 9812 4409 9816